{"data":{"norad_id":65098,"intl_designator":"2025-167W","name":"STARLINK-34764","alt_names":[],"object_type":"PAYLOAD","status":"ACTIVE","operator":null,"country":"US","launch_date":"2025-08-04","launch_site_code":"AFETR","launch_vehicle":null,"mission":null,"orbit_class":"UNKNOWN","rcs_meters":null,"size_class":null,"mass_kg":null,"dimensions":null,"purposes":["comms"],"wikipedia_slug":null,"has_3d_model":false,"image_url":null,"decayed_at":null,"tle_current":{"epoch":"2026-09-20T05:11:50.595648Z","epoch_age_seconds":144738,"freshness":"FRESH","line1":"1 65098U 25167W   26263.21655782  .00010229  00000+0  31340-3 0  9991","line2":"2 65098  53.1578 198.7794 0001506 102.5147 257.6024 15.34406545 63323","mean_motion":15.34406545,"eccentricity":0.0001506,"inclination_deg":53.1578,"raan_deg":198.7794,"arg_perigee_deg":102.5147,"mean_anomaly_deg":257.6024,"bstar":0.0003134,"rev_number":6332,"period_min":93.847357774403,"perigee_km":461.65355954641,"apogee_km":463.7140147675,"semimajor_km":6840.820787157,"source":"CELESTRAK","updated_at":"2026-09-21T09:00:35.525189Z"}}}